sat.trackr.live / text

‹ back to catalog

STARLINK-5453

NORAD 54773 · 2022-175R

PAYLOAD ACTIVE UNKNOWN

§ Identity

Operator
Country
US
Launch date
2022-12-17
Launch site
AFETR
Launch vehicle
Mass (kg)
RCS (m²)

Purposes: comms

External: N2YO · Heavens-Above · Gunter

§ Orbital elements

Epoch: 2026-05-25T02:00:14.431968Z

Period
95.44 min
Inclination
53.2135°
Eccentricity
0.0002085
Mean motion
15.08845551 rev/d
Perigee alt
538.3 km
Apogee alt
541.2 km
Semi-major
6,917.9 km
B*
-1.3164e-5
RAAN
61.0508°
Arg perigee
68.0049°
Mean anomaly
292.1165°
Rev number
19,145

§ Raw data

STARLINK-54531 54773U 22175R   26145.08350037 -.00000498  00000+0 -13164-4 0  99982 54773  53.2135  61.0508 0002085  68.0049 292.1165 15.08845551191457

JSON: /api/v1/satellites/54773 · /tle

For live sub-satellite position, see the globe view (requires WebGL).

§ Visibility from observer

Set your observer location to see the next 7 days of passes ≥ 10°. The values pass through the URL so the page stays shareable.

No JS? Fill the form by hand. The geolocation button needs JavaScript.